Location: Rowland
(34.5359°N, 79.2929°W)
Time: 18:06:08
(UTC+00:00)

A-11 Canister half - Pass Details

Date: 11 October 2022
Orbit: 1515 x 1684 km, 47.2° (Epoch: 06 December)

Event Time Altitude Azimuth Distance (km) Brightness Sun altitude
Rises 02:35:58 0° 286° (WNW) 4,829 12.3 -46.2°
Reaches altitude 10° 02:39:30 10° 295° (WNW) 3,818 11.6 -46.8°
Enters shadow 02:46:37 36° 339° (NNW) 2,318 10.0 -48.1°
